Weather History for Arlington, TX

Change the Weather History Date:

Friday, February 7, 2014

  Actual Average (KRBD) Record (KRBD)
Temperature  
Mean Temperature 28 °F -  
Max Temperature 32 °F 55 °F 80 °F (2013)
Min Temperature 23 °F 38 °F 24 °F (2014)
Degree Days  
Heating Degree Days 38    
Moisture  
Dew Point 21 °F    
Average Humidity 74    
Maximum Humidity 86    
Minimum Humidity 66    
Precipitation  
Precipitation 0.00 in - - ()
Sea Level Pressure  
Sea Level Pressure 30.31 in    
Wind  
Wind Speed 5 mph (ESE)    
Max Wind Speed 8 mph    
Max Gust Speed -    
Visibility 10 miles    
Events      
Averages and records for this station are not official NWS values.
T = Trace of Precipitation, MM = Missing Value Source: NWS Daily Summary

Daily Weather History Graph

Daily Weather History Graph

Search for Another Location

Airport:

Trip Planner

Search our weather history database for the weather conditions in past years. The results will help you decide how hot, cold, wet, or windy it might be!

Date:

Astronomy

Feb. 07, 2014 Rise Set
Actual Time 7:18 AM CST 6:06 PM CST
Civil Twilight 6:53 AM CST 6:32 PM CST
Nautical Twilight 6:23 AM CST 7:01 PM CST
Astronomical Twilight 5:55 AM CST 7:30 PM CST
Moon 12:22 PM CST (2/7) 1:33 AM CST (2/7)
Length of Visible Light 11h 39m
Length of Day
10h 48m
First Quarter, 59% of the Moon is Illuminated
Feb 7
First Quarter
Feb 14
Full
Feb 22
Last Quarter
Mar 1
New
Mar 8
First Quarter

Hourly Weather History & Observations

Time (CST) Temp. Windchill Dew Point Humidity Pressure Visibility Wind Dir Wind Speed Gust Speed Precip Events Conditions
12:53 AM 23.0 °F 15.8 °F 15.1 °F 72% 30.42 in 10.0 mi North 5.8 mph - N/A   Overcast
1:53 AM 24.1 °F 16.0 °F 16.0 °F 71% 30.40 in 10.0 mi North 6.9 mph - N/A   Overcast
2:53 AM 23.0 °F 15.8 °F 15.1 °F 72% 30.39 in 10.0 mi North 5.8 mph - N/A   Overcast
3:53 AM 24.1 °F 17.0 °F 15.1 °F 69% 30.38 in 10.0 mi North 5.8 mph - N/A   Overcast
4:53 AM 24.1 °F 17.0 °F 16.0 °F 71% 30.38 in 10.0 mi NNW 5.8 mph - N/A   Overcast
5:53 AM 23.0 °F 17.0 °F 15.1 °F 72% 30.35 in 10.0 mi NE 4.6 mph - N/A   Scattered Clouds
6:53 AM 24.1 °F - 16.0 °F 71% 30.36 in 10.0 mi Calm Calm - N/A   Overcast
7:53 AM 25.0 °F 19.3 °F 16.0 °F 69% 30.38 in 10.0 mi NNE 4.6 mph - N/A   Overcast
8:53 AM 26.1 °F - 17.1 °F 69% 30.39 in 10.0 mi Calm Calm - N/A   Overcast
9:53 AM 27.0 °F - 18.0 °F 69% 30.40 in 10.0 mi Calm Calm - N/A   Overcast
10:13 AM 26.6 °F - 17.6 °F 69% 30.38 in 10.0 mi Calm Calm - N/A   Overcast
10:43 AM 28.4 °F - 19.4 °F 69% 30.37 in 10.0 mi Calm Calm - N/A   Overcast
10:53 AM 28.0 °F 21.7 °F 19.0 °F 69% 30.38 in 10.0 mi East 5.8 mph - N/A   Overcast
11:53 AM 30.0 °F 25.2 °F 19.9 °F 66% 30.36 in 10.0 mi SE 4.6 mph - N/A   Overcast
12:53 PM 30.9 °F 25.2 °F 21.0 °F 67% 30.31 in 10.0 mi ESE 5.8 mph - N/A   Overcast
1:53 PM 30.9 °F - 21.0 °F 67% 30.29 in 10.0 mi Calm Calm - N/A   Overcast
2:53 PM 32.0 °F - 21.9 °F 66% 30.27 in 10.0 mi Calm Calm - N/A   Overcast
3:53 PM 30.9 °F 27.5 °F 24.1 °F 76% 30.26 in 9.0 mi SE 3.5 mph - 0.00 in   Overcast
4:05 PM 30.2 °F 26.7 °F 24.8 °F 80% 30.25 in 10.0 mi ESE 3.5 mph - N/A   Overcast
4:43 PM 32.0 °F 25.6 °F 24.8 °F 75% 30.23 in 10.0 mi ESE 6.9 mph - N/A   Overcast
4:53 PM 30.9 °F 25.2 °F 24.1 °F 76% 30.25 in 10.0 mi SE 5.8 mph - N/A   Overcast
5:53 PM 32.0 °F 24.8 °F 23.0 °F 69% 30.25 in 10.0 mi SE 8.1 mph - N/A   Overcast
6:53 PM 30.9 °F 24.3 °F 24.1 °F 76% 30.25 in 10.0 mi SSE 6.9 mph - N/A   Overcast
7:14 PM 30.2 °F 24.3 °F 24.8 °F 80% 30.25 in 10.0 mi SSE 5.8 mph - N/A   Overcast
7:53 PM 30.9 °F 26.2 °F 25.0 °F 79% 30.26 in 10.0 mi SSE 4.6 mph - N/A   Overcast
8:53 PM 30.9 °F 23.5 °F 25.0 °F 79% 30.25 in 10.0 mi SE 8.1 mph - N/A   Overcast
9:53 PM 30.9 °F 26.2 °F 26.1 °F 82% 30.27 in 10.0 mi South 4.6 mph - N/A   Overcast
10:53 PM 30.9 °F 24.3 °F 26.1 °F 82% 30.26 in 10.0 mi SSE 6.9 mph - N/A   Overcast
11:00 PM 30.2 °F 24.3 °F 26.6 °F 86% 30.25 in 10.0 mi SSE 5.8 mph - N/A   Overcast
11:41 PM 30.2 °F 25.4 °F 26.6 °F 86% 30.23 in 10.0 mi SSE 4.6 mph - N/A   Overcast
11:53 PM 30.9 °F 26.2 °F 26.1 °F 82% 30.24 in 10.0 mi SE 4.6 mph - N/A   Overcast